#timestamp,LO_Frequency,Hit 
1498647615.1,286046948.2,N
1498647616.0,286046948.2,N
1498647635.8,286046945.4,N
1498647655.6,286046945.4,N
1498647675.4,286046947.9,N
1498647695.3,286046945.7,N
1498647715.1,286046945.8,N
1498647735.8,286046946.6,N
1498647755.7,286046946.8,N
1498647775.5,286046943.8,N
1498647795.3,286046944.0,N
1498647815.2,286046944.4,N
1498647835.9,286046944.1,N
1498647855.7,286046945.1,N
1498647875.6,286046945.1,N
1498647895.4,286046942.1,N
1498647915.2,286046942.2,N
1498647935.1,286046942.2,N
1498647936.0,286046942.2,N
1498647955.8,286046942.9,N
1498647975.6,286046943.1,N
1498647995.5,286046943.3,N
1498648015.3,286046943.6,N
1498648035.1,286046940.5,N
1498648055.8,286046943.3,N
1498648075.7,286046941.7,N
1498648095.5,286046941.0,N
1498648115.3,286046940.8,N
1498648135.2,286046939.0,N
1498648155.0,286046941.5,N
1498648155.9,286046941.5,N
1498648175.7,286046939.3,N
1498648195.6,286046939.3,N
1498648215.4,286046940.0,N
1498648235.2,286046939.4,N
1498648255.1,286046939.6,N
1498648256.0,286046939.6,N
1498648275.8,286046940.2,N
1498648295.6,286046939.7,N
1498648315.5,286046937.3,N
1498648335.3,286046938.0,N
1498648355.1,286046938.2,N
1498648375.9,286046938.3,N
1498648395.7,286046938.7,N
1498648415.5,286046937.1,N
1498648435.3,286046934.1,N
1498648455.2,286046936.7,N
1498648475.0,286046935.0,N
1498648475.9,286046935.0,N
1498648495.7,286046935.3,N
1498648515.6,286046934.5,N
1498648535.4,286046935.5,N
1498648555.2,286046934.7,N
1498648575.1,286046935.2,N
1498648576.0,286046935.2,N
1498648595.8,286046935.4,N
1498648615.6,286046935.5,N
1498648635.5,286046934.9,N
1498648655.3,286046935.1,N
1498648675.1,286046935.4,N
1498648695.8,286046932.6,N
1498648715.7,286046933.3,N
1498648735.5,286046933.1,N
1498648755.3,286046933.2,N
1498648775.2,286046930.9,N
1498648795.0,286046933.9,N
1498648795.9,286046933.9,N
1498648815.7,286046934.0,N
1498648835.6,286046931.1,N
1498648855.4,286046931.9,N
1498648875.2,286046932.3,N
1498648895.1,286046932.4,N
1498648896.0,286046932.4,N
1498648915.8,286046931.7,N
1498648935.6,286046932.2,N
1498648955.5,286046929.5,N
1498648975.3,286046929.8,N
1498648995.1,286046929.4,N
1498649015.9,286046930.7,N
1498649035.7,286046928.2,N
1498649055.5,286046928.3,N
1498649075.3,286046928.3,N
1498649095.2,286046928.6,N
1498649115.0,286046927.9,N
1498649115.9,286046927.9,N
1498649135.7,286046928.6,N
1498649155.6,286046928.5,N
1498649175.4,286046928.7,N
1498649195.2,286046929.1,N
1498649215.1,286046929.2,N
1498649216.0,286046929.2,N
1498649235.8,286046926.5,Y
1498649255.6,286046988.1,N
1498649275.5,286046985.8,N
1498649295.3,286046985.9,N
1498649315.1,286046986.0,N
1498649335.9,286046986.5,N
1498649355.7,286046983.7,N
1498649375.5,286046986.8,N
1498649395.4,286046984.1,N
1498649415.2,286046985.0,N
1498649435.0,286046984.9,N
1498649435.9,286046984.9,N
1498649455.8,286046985.1,N
1498649475.6,286046982.6,N
1498649495.4,286046983.4,N
1498649515.2,286046983.1,N
1498649535.1,286046983.2,N
1498649536.0,286046983.2,N
1498649555.8,286046983.6,N
1498649575.6,286046980.5,N
1498649595.5,286046980.9,N
1498649615.3,286046980.5,N
1498649635.1,286046980.7,N
1498649655.9,286046979.5,N
1498649675.7,286046980.1,N
1498649695.5,286046980.1,N
1498649715.4,286046979.2,N
1498649735.2,286046979.1,N
1498649755.0,286046981.9,N
1498649755.9,286046981.9,N
1498649775.8,286046979.0,N
1498649795.6,286046980.2,N
1498649815.4,286046979.7,N
1498649835.3,286046980.1,N
1498649855.1,286046980.2,N
1498649856.0,286046980.2,N
1498649875.8,286046980.2,N
1498649895.6,286046977.8,N
1498649915.5,286046977.7,N
1498649935.3,286046977.6,N
1498649955.1,286046978.5,N
1498649975.9,286046978.7,N
1498649995.7,286046978.4,N
1498650015.5,286046976.6,N
1498650035.4,286046976.3,N
1498650055.2,286046976.5,N
1498650075.0,286046976.9,N
1498650075.9,286046976.9,N
1498650095.8,286046977.0,N
1498650115.6,286046977.2,N
1498650135.4,286046975.0,N
1498650155.2,286046975.4,N
1498650175.1,286046975.1,N
1498650176.0,286046975.1,N
1498650195.8,286046972.5,N
1498650215.6,286046973.7,N
1498650235.5,286046973.6,N
1498650255.3,286046971.5,N
1498650275.1,286046971.3,N
1498650295.9,286046971.8,N
1498650315.7,286046970.5,N
1498650335.5,286046970.0,N
1498650355.4,286046970.5,N
1498650375.2,286046967.7,N
1498650395.0,286046968.0,N
1498650395.9,286046968.0,N
1498650415.8,286046969.0,N
1498650435.6,286046968.8,N
1498650455.4,286046969.1,N
1498650475.3,286046966.2,N
1498650495.1,286046968.9,N
1498650496.0,286046968.9,N
1498650515.8,286046966.3,N
1498650535.7,286046966.7,N
1498650555.5,286046966.4,N
1498650575.3,286046967.6,N
1498650595.1,286046967.6,N
1498650615.9,286046964.8,N
1498650635.7,286046964.8,N
1498650655.5,286046965.4,N
1498650675.4,286046965.6,N
1498650695.2,286046963.6,N
1498650715.0,286046964.4,N
1498650715.9,286046964.4,N
1498650735.8,286046963.7,N
1498650755.6,286046964.4,N
1498650775.4,286046961.5,N
1498650795.3,286046961.9,N
1498650815.1,286046962.2,N
1498650816.0,286046962.2,N
1498650835.8,286046962.3,N
1498650855.7,286046960.0,N
1498650875.5,286046960.3,N
1498650895.3,286046960.6,N
1498650915.1,286046960.8,N
1498650935.9,286046958.8,N
1498650955.7,286046958.7,N
1498650975.5,286046958.9,N
1498650995.4,286046959.1,N
1498651015.2,286046959.6,N
1498651035.0,286046959.5,N
1498651035.9,286046959.5,N
1498651055.8,286046959.5,N
1498651075.6,286046957.2,N
1498651095.4,286046957.4,N
1498651115.3,286046957.6,N
1498651135.1,286046956.8,N
1498651136.0,286046956.8,N
1498651155.8,286046956.8,N
1498651175.7,286046956.8,N
1498651195.5,286046958.0,N
